Location: Newark
(46.2358°N, 112.1211°W)
Time: 14:48:05
(UTC+00:00)

SEEDS - Visible Passes

Search period start: 26 July 2021 00:00
Search period end: 05 August 2021 00:00
Orbit: 584 x 602 km, 97.6° (Epoch: 26 July)

Date Brightness Start Highest point End Pass type
(mag) Time Alt. Az. Time Alt. Az. Time Alt. Az.
30 Jul ? 11:00:14 10° ENE 11:01:59 12° E 11:03:44 10° ESE visible
31 Jul ? 11:08:38 10° NE 11:11:08 15° E 11:13:37 10° SE visible
01 Aug ? 11:17:16 10° NE 11:20:16 19° E 11:23:15 10° SE visible
02 Aug ? 11:26:01 10° NE 11:29:23 23° E 11:32:44 10° SSE visible
03 Aug ? 11:34:51 10° NE 11:38:29 29° E 11:42:06 10° SSE visible
